Flag for India

Past Weather in Kolkata, West Bengal, India — Yesterday and Last 2 Weeks

Now
82 °F

Partly cloudy.


Feels Like: 94 °F
Forecast: 92 / 83 °F
Wind: 7 mph from South

Location: Calcutta / Dum Dum
Current Time: Sep 25, 2020 at 7:54:22 pm
Latest Report: Sep 25, 2020 at 7:00 pm
Visibility: 2 mi
Pressure29.59 "Hg
Humidity: 94%
Dew Point: 81 °F
Location of KolkataLocation

Past Weather in Kolkata — Graph

°F

Kolkata Temperature Yesterday

Maximum temperature yesterday: 91 °F (at 1:00 pm)
Minimum temperature yesterday: 82 °F (at 12:00 am)
Average temperature yesterday: 85 °F

High & Low Weather Summary for the Past Weeks

 TemperatureHumidityPressure
High97 °F (Sep 16, 1:30 pm)100% (Sep 10, 9:30 pm)29.77 "Hg (Sep 10, 9:30 pm)
Low79 °F (Sep 20, 8:00 am)71% (Sep 15, 10:00 am)29.39 "Hg (Sep 21, 3:00 pm)
Average87 °F90%29.61 "Hg
* Reported Sep 10 6:30 pm — Sep 25 6:30 pm, Kolkata. Weather by CustomWeather, © 2020

Note: Actual official high and low records may vary slightly from our data, if they occured in-between our weather recording intervals... More about our weather records

Kolkata Weather History for the Previous 24 Hours

Scroll right to see more
 ConditionsComfort  
Time TempWeatherWind HumidityBarometerVisibility
6:30 pm
Fri, Sep 25
82 °FPartly cloudy.8 mph94%29.56 "Hg2 mi
6:00 pm82 °FPartly cloudy.9 mph94%29.56 "Hg2 mi
5:30 pm84 °FMore clouds than sun.6 mph94%29.56 "Hg2 mi
5:00 pm84 °FMore clouds than sun.6 mph94%29.56 "Hg2 mi
4:30 pm86 °FMore clouds than sun.8 mph94%29.56 "Hg2 mi
4:00 pm86 °FMore clouds than sun.9 mph94%29.56 "Hg2 mi
3:30 pm86 °FBroken clouds.7 mph94%29.56 "Hg1 mi
3:00 pm86 °FMore clouds than sun.6 mph94%29.56 "Hg2 mi
2:30 pm84 °FMore clouds than sun.7 mph94%29.56 "Hg1 mi
2:00 pm82 °FLight rain. More clouds than sun.5 mph94%29.56 "Hg1 mi
1:30 pm82 °FLight rain. More clouds than sun.6 mph94%29.56 "Hg1 mi
1:00 pm82 °FThunderstorms. More clouds than sun.6 mph94%29.59 "Hg1 mi
12:30 pm82 °FThunderstorms. More clouds than sun.7 mph94%29.59 "Hg1 mi
12:00 pm84 °FThunderstorms. More clouds than sun.9 mph94%29.62 "Hg1 mi
11:30 am82 °FThunderstorms. More clouds than sun.6 mph94%29.62 "Hg2 mi
11:00 am82 °FThunderstorms. More clouds than sun.9 mph94%29.62 "Hg1 mi
10:30 am86 °FThunderstorms. Broken clouds.12 mph89%29.62 "Hg1 mi
10:00 am90 °FBroken clouds.N/A84%29.65 "Hg2 mi
9:30 am90 °FBroken clouds.12 mph89%29.65 "Hg2 mi
9:00 am88 °FBroken clouds.7 mph94%29.65 "Hg2 mi
8:30 am88 °FBroken clouds.6 mph89%29.65 "Hg2 mi
8:00 am86 °FScattered clouds.9 mph94%29.65 "Hg2 mi
7:30 am86 °FScattered clouds.8 mph89%29.65 "Hg2 mi
6:30 am84 °FPartly sunny.7 mph94%29.62 "Hg2 mi
6:00 am84 °FPartly sunny.7 mph94%29.62 "Hg2 mi
5:30 am84 °FPassing clouds.7 mph94%29.59 "Hg2 mi
5:00 am84 °FPassing clouds.7 mph94%29.59 "Hg2 mi
4:30 am84 °FPassing clouds.7 mph94%29.59 "Hg2 mi
4:00 am84 °FPassing clouds.7 mph94%29.59 "Hg2 mi
3:30 am84 °FPassing clouds.7 mph94%29.59 "Hg2 mi
3:00 am84 °FPassing clouds.8 mph94%29.62 "Hg2 mi
2:30 am84 °FPassing clouds.8 mph94%29.62 "Hg2 mi
2:00 am84 °FPartly cloudy.9 mph94%29.62 "Hg2 mi
1:30 am84 °FPartly cloudy.6 mph94%29.65 "Hg2 mi
1:00 am84 °FPartly cloudy.6 mph94%29.65 "Hg2 mi
12:30 am84 °FPartly cloudy.6 mph94%29.65 "Hg2 mi
12:00 am84 °FPartly cloudy.7 mph94%29.65 "Hg2 mi
11:30 pm
Thu, Sep 24
84 °FPartly cloudy.7 mph94%29.65 "Hg2 mi
11:00 pm84 °FPartly cloudy.7 mph94%29.65 "Hg2 mi
10:30 pm84 °FPartly cloudy.7 mph94%29.68 "Hg2 mi
10:00 pm84 °FPartly cloudy.9 mph94%29.68 "Hg2 mi
9:30 pm84 °FPartly cloudy.9 mph94%29.68 "Hg2 mi
9:00 pm86 °FPartly cloudy.8 mph89%29.68 "Hg2 mi
8:30 pm86 °FPartly cloudy.9 mph94%29.68 "Hg2 mi
8:00 pm86 °FPartly cloudy.8 mph94%29.65 "Hg2 mi
7:30 pm86 °FPartly cloudy.8 mph94%29.65 "Hg2 mi
7:00 pm86 °FPartly cloudy.7 mph94%29.65 "Hg2 mi
Weather by CustomWeather, © 2020

See weather overview